M0ZPG Weather Reports


time (UTC)temp
F
wind
direction
speed
knots
gust
knots
rain 1hr
in
rain 24hr
in
rain mn
in
humidity
%
barometer
mb
20200702082941 60 243 2.6 10.4 0.00 0.13 0.00 81 1009.5
20200702082040 61 254 1.7 7.0 0.00 0.13 0.00 79 1009.3
20200702081141 61 257 1.7 7.8 0.00 0.13 0.00 79 1009.2
20200702080241 61 249 2.6 7.0 0.00 0.13 0.00 79 1009.4
20200702075341 60 251 2.6 7.0 0.00 0.13 0.00 80 1009.3
20200702074441 60 237 2.6 8.7 0.00 0.13 0.00 80 1009.3
20200702073541 60 247 2.6 10.4 0.00 0.13 0.00 80 1009.2
20200702072650 60 251 2.6 7.8 0.00 0.13 0.00 80 1009.1
20200702071741 60 247 2.6 9.6 0.00 0.13 0.00 78 1009.0
20200702070844 61 254 1.7 7.8 0.00 0.13 0.00 77 1009.0
20200702065940 61 251 1.7 8.7 0.00 0.13 0.00 79 1009.0
20200702065040 60 246 1.7 7.8 0.00 0.13 0.00 79 1009.0
20200702064141 59 249 2.6 7.8 0.00 0.13 0.00 81 1009.0
20200702063240 59 248 2.6 8.7 0.00 0.13 0.00 81 1008.9
20200702062341 59 242 1.7 8.7 0.00 0.13 0.00 82 1008.9
20200702061440 58 239 0.9 6.1 0.00 0.13 0.00 84 1008.7
20200702060540 57 239 1.7 6.1 0.00 0.13 0.00 84 1008.7
20200702055640 57 250 0.9 7.0 0.00 0.13 0.00 86 1008.7
20200702054740 55 234 0.0 3.5 0.00 0.13 0.00 87 1008.6
20200702053840 55 209 0.0 1.7 0.00 0.13 0.00 89 1008.6
20200702052940 54 250 0.0 2.6 0.00 0.13 0.00 89 1008.5
20200702052040 54 241 0.9 6.1 0.00 0.13 0.00 89 1008.5
20200702051140 54 254 0.9 3.5 0.00 0.13 0.00 90 1008.5
20200702050240 54 248 0.0 3.5 0.00 0.13 0.00 90 1008.5
20200702045340 54 250 0.9 3.5 0.00 0.13 0.00 90 1008.5
20200702044441 54 243 0.9 3.5 0.00 0.13 0.00 90 1008.5
20200702043541 53 252 0.9 5.2 0.00 0.13 0.00 90 1008.5
20200702042645 53 244 0.9 4.3 0.00 0.13 0.00 91 1008.6
20200702041740 53 244 0.9 4.3 0.00 0.13 0.00 91 1008.5
20200702040840 53 238 0.9 4.3 0.00 0.13 0.00 91 1008.4
20200702035942 53 246 0.9 2.6 0.00 0.13 0.00 90 1008.5
20200702035040 53 240 0.0 2.6 0.00 0.13 0.00 90 1008.4
20200702034140 53 240 0.0 4.3 0.00 0.13 0.00 90 1008.3
20200702033242 53 256 0.0 3.5 0.00 0.13 0.00 90 1008.3
20200702032340 53 261 0.0 1.7 0.00 0.13 0.00 90 1008.3
20200702031441 53 243 0.0 2.6 0.00 0.13 0.00 90 1008.2
20200702030540 53 251 0.9 3.5 0.00 0.13 0.00 90 1008.1
20200702025640 54 234 0.0 3.5 0.00 0.13 0.00 90 1008.3
20200702024740 54 248 0.9 3.5 0.00 0.13 0.00 90 1008.3
20200702023840 54 248 0.0 2.6 0.00 0.13 0.00 89 1008.2
20200702022941 54 242 0.0 2.6 0.00 0.13 0.00 89 1008.1
20200702022041 54 236 0.9 1.7 0.00 0.13 0.00 89 1008.1
20200702021140 54 237 0.0 2.6 0.00 0.13 0.00 89 1008.0
20200702020240 55 244 0.9 2.6 0.00 0.13 0.00 89 1008.0
20200702015341 55 241 0.0 4.3 0.00 0.13 0.00 89 1007.9
20200702014440 55 242 0.9 4.3 0.00 0.13 0.00 89 1007.9
20200702013540 56 242 0.9 2.6 0.00 0.13 0.00 89 1007.9
20200702012640 56 243 0.0 4.3 0.00 0.13 0.00 88 1007.8
20200702011742 56 253 0.0 4.3 0.00 0.13 0.00 87 1007.8
20200702010840 56 251 0.9 3.5 0.00 0.13 0.00 85 1007.8
20200702005940 57 238 1.7 5.2 0.00 0.13 0.00 84 1007.8
20200702005040 57 239 1.7 8.7 0.00 0.13 0.00 84 1007.9
20200702004140 57 246 1.7 7.0 0.00 0.13 0.00 84 1007.8
20200702003241 57 238 1.7 5.2 0.00 0.13 0.00 86 1007.9
20200702002340 57 257 1.7 5.2 0.00 0.13 0.00 85 1007.8
20200702001441 57 252 1.7 7.8 0.00 0.13 0.00 86 1007.8
20200702000540 58 256 1.7 6.1 0.00 0.13 0.00 88 1007.7
20200701235640 58 249 1.7 7.8 0.00 0.13 0.00 89 1007.8
20200701234743 58 254 1.7 7.8 0.00 0.13 0.00 89 1007.8
20200701233841 59 247 1.7 7.0 0.00 0.13 0.00 90 1007.8
20200701232940 59 248 0.9 6.1 0.00 0.13 0.00 90 1007.6
20200701232040 59 238 0.9 4.3 0.00 0.13 0.00 90 1007.6
20200701231140 59 248 0.9 7.0 0.00 0.13 0.00 90 1007.5
20200701230240 59 243 0.9 4.3 0.00 0.13 0.00 91 1007.5
20200701225341 59 248 0.9 4.3 0.00 0.13 0.13 91 1007.5
20200701224440 59 242 0.9 3.5 0.00 0.13 0.13 91 1007.5
20200701223540 59 249 0.9 5.2 0.00 0.13 0.13 91 1007.4
20200701222640 59 240 0.9 4.3 0.00 0.13 0.13 91 1007.5
20200701221741 59 245 0.9 4.3 0.00 0.13 0.13 91 1007.3
20200701220840 59 236 0.9 3.5 0.00 0.13 0.13 92 1007.3
20200701215940 59 252 0.0 0.9 0.00 0.13 0.13 92 1007.4
20200701215040 59 256 0.0 2.6 0.00 0.13 0.13 91 1007.3
20200701214145 59 248 0.0 4.3 0.00 0.13 0.13 91 1007.3
20200701213245 59 237 0.9 4.3 0.00 0.13 0.13 91 1007.2
20200701212340 59 248 0.9 3.5 0.00 0.13 0.13 92 1007.2
20200701211440 59 251 0.9 3.5 0.00 0.13 0.13 92 1007.3
20200701210543 60 231 0.0 2.6 0.00 0.13 0.13 92 1007.1
20200701205640 60 233 0.9 3.5 0.00 0.13 0.13 92 1007.1
20200701204740 60 217 0.0 1.7 0.00 0.13 0.13 92 1007.1
20200701203841 60 244 0.0 1.7 0.00 0.13 0.13 92 1007.1
20200701202941 60 251 0.9 3.5 0.00 0.13 0.13 91 1007.0
20200701202041 60 257 0.0 2.6 0.00 0.13 0.13 91 1006.9
20200701201140 60 253 0.0 2.6 0.00 0.13 0.13 91 1006.9
20200701200240 60 264 0.0 2.6 0.00 0.13 0.13 91 1006.9
20200701195346 60 248 0.9 2.6 0.00 0.13 0.13 91 1006.8
20200701194440 60 242 0.0 2.6 0.00 0.13 0.13 91 1006.9
20200701193540 60 247 0.9 3.5 0.00 0.13 0.13 90 1006.8
20200701192640 60 250 1.7 6.1 0.00 0.13 0.13 90 1006.7
20200701191740 60 247 1.7 6.1 0.00 0.13 0.13 89 1006.8
20200701190840 61 249 2.6 5.2 0.00 0.13 0.13 89 1006.8
20200701185940 61 243 0.9 4.3 0.00 0.13 0.13 89 1006.7
20200701185040 61 259 0.9 6.1 0.00 0.13 0.13 89 1006.7
20200701184141 61 244 1.7 5.2 0.00 0.13 0.13 89 1006.6
20200701183242 61 245 1.7 6.1 0.00 0.13 0.13 88 1006.5
20200701182341 62 245 1.7 6.1 0.00 0.13 0.13 88 1006.4
20200701181440 62 257 0.9 4.3 0.00 0.13 0.13 88 1006.3
20200701180541 62 251 1.7 7.0 0.00 0.13 0.13 88 1006.3
20200701175640 62 250 1.7 8.7 0.00 0.13 0.13 88 1006.4
20200701174741 63 243 1.7 8.7 0.00 0.13 0.13 88 1006.4
20200701173840 63 253 0.9 4.3 0.00 0.13 0.13 89 1006.2
20200701172940 63 183 0.0 2.6 0.00 0.13 0.13 90 1006.3
20200701172043 63 220 0.9 6.1 0.00 0.13 0.13 89 1006.3
20200701171141 63 228 0.9 4.3 0.01 0.13 0.13 89 1006.2
20200701170241 63 230 0.9 4.3 0.01 0.13 0.13 90 1006.2
20200701165341 63 231 0.9 4.3 0.01 0.13 0.13 90 1006.2
20200701164440 63 249 0.9 4.3 0.01 0.13 0.13 90 1006.2
20200701163540 62 242 0.9 4.3 0.02 0.13 0.13 90 1006.2
20200701162643 62 230 0.9 2.6 0.04 0.13 0.13 90 1006.2
20200701161740 62 221 0.0 3.5 0.04 0.13 0.12 90 1006.0
20200701160840 62 152 0.9 3.5 0.04 0.13 0.12 90 1006.0
20200701155940 62 211 0.9 5.2 0.06 0.13 0.12 91 1006.1
20200701155040 61 240 0.9 4.3 0.08 0.13 0.12 90 1006.1
20200701154140 61 242 2.6 6.1 0.10 0.12 0.11 89 1006.1
20200701153242 61 262 1.7 6.1 0.09 0.10 0.09 88 1006.1
20200701152340 62 250 0.9 4.3 0.08 0.09 0.08 89 1006.1
20200701151443 62 258 0.9 7.8 0.08 0.09 0.08 89 1006.1
20200701150540 62 263 1.7 6.1 0.08 0.09 0.08 88 1006.2
20200701145640 62 272 2.6 9.6 0.06 0.06 0.06 84 1006.0
20200701144743 64 276 2.6 11.3 0.04 0.05 0.04 82 1005.9
20200701143840 66 294 1.7 4.3 0.00 0.01 0.00 75 1005.5
20200701142940 67 260 0.9 5.2 0.00 0.01 0.00 75 1005.4
20200701142040 67 254 2.6 11.3 0.00 0.01 0.00 72 1005.4
20200701141140 69 252 2.6 8.7 0.00 0.01 0.00 67 1005.3
20200701140243 70 253 4.3 10.4 0.00 0.01 0.00 62 1005.3
20200701135343 71 251 2.6 8.7 0.00 0.01 0.00 61 1005.1
20200701134442 70 232 1.7 7.0 0.00 0.01 0.00 62 1005.0
20200701133540 69 236 1.7 7.0 0.00 0.01 0.00 63 1005.1
20200701132640 70 231 2.6 8.7 0.00 0.01 0.00 61 1005.0
20200701131740 71 238 2.6 10.4 0.00 0.01 0.00 62 1005.0
20200701130840 70 243 1.7 5.2 0.00 0.01 0.00 63 1005.0
20200701125940 69 255 3.5 10.4 0.00 0.01 0.00 63 1005.0
20200701125040 69 251 2.6 11.3 0.00 0.01 0.00 62 1005.0
20200701124140 70 178 2.6 7.8 0.00 0.01 0.00 60 1004.9
20200701123241 71 198 2.6 11.3 0.00 0.01 0.00 58 1004.8
20200701122341 70 246 2.6 8.7 0.00 0.01 0.00 62 1005.0
20200701121440 69 247 2.6 8.7 0.00 0.01 0.00 63 1005.0
20200701120540 69 239 1.7 7.0 0.00 0.01 0.00 62 1004.9
20200701115640 71 244 2.6 9.6 0.00 0.01 0.00 59 1004.8
20200701114740 72 235 2.6 10.4 0.00 0.01 0.00 60 1004.7
20200701113840 72 243 3.5 9.6 0.00 0.01 0.00 58 1004.7
20200701112951 71 236 2.6 8.7 0.00 0.01 0.00 61 1004.6
20200701112040 70 241 2.6 9.6 0.00 0.01 0.00 60 1004.5
20200701111140 71 252 2.6 10.4 0.00 0.01 0.00 58 1004.4
20200701110240 71 246 2.6 9.6 0.00 0.02 0.00 63 1004.2
20200701105340 70 253 2.6 9.6 0.00 0.02 0.00 61 1004.5
20200701104441 69 254 2.6 10.4 0.00 0.02 0.00 62 1004.5
20200701103541 69 255 3.5 10.4 0.00 0.02 0.00 64 1004.6
20200701102640 69 249 2.6 9.6 0.00 0.02 0.00 63 1004.5
20200701101743 69 227 2.6 8.7 0.00 0.03 0.00 64 1004.6
20200701100848 69 253 3.5 8.7 0.00 0.04 0.00 64 1004.6
20200701095940 68 245 3.5 11.3 0.00 0.05 0.00 64 1004.6
20200701095040 68 232 2.6 7.8 0.00 0.05 0.00 67 1004.6
20200701094140 67 250 2.6 10.4 0.00 0.06 0.00 67 1004.5
20200701093240 66 249 2.6 8.7 0.00 0.06 0.00 67 1004.4
20200701092340 67 251 2.6 9.6 0.00 0.08 0.00 67 1004.5
20200701091441 67 247 2.6 9.6 0.00 0.08 0.00 67 1004.5
20200701090540 66 257 2.6 9.6 0.00 0.09 0.00 67 1004.7
20200701085640 67 241 2.6 7.8 0.00 0.09 0.00 67 1004.6
20200701084740 66 250 3.5 12.2 0.00 0.09 0.00 67 1004.6
20200701083840 67 247 2.6 9.6 0.00 0.09 0.00 67 1004.6